Flag for Spain Weather past 2 weeks in Santander, Spain

Now
46 °F

Passing clouds.


Feels Like: 44 °F
Forecast: 52 / 56 °F
Wind: 6 mph from Southwest

Location: Santander / Parayas

Current Time: Jan 28, 2015 at 6:15:15 AM

Latest Report: Jan 28, 2015 at 5:30 AM


Visibility: N/A

Pressure: 30.36 "Hg

Humidity: 93%

Dew point: 45 °F

Location of SantanderLocation

Historic Weather in Santander — Graph

°F

Santander temperature yesterday

Maximum temperature yesterday: 50 °F (at 9:30 AM)
Minimum temperature yesterday: 46 °F (at 5:30 AM)
Average temperature yesterday: 48 °F

Past Weeks' High & Low Weather Summary

 TemperatureHumidityPressure
High61 °F (Jan 13, 3:00 PM)100% (Jan 15, 7:30 PM)30.60 "Hg (Jan 15, 7:30 PM)
Low34 °F (Jan 24, 8:00 AM)44% (Jan 14, 4:00 PM)29.74 "Hg (Jan 15, 1:00 PM)
Average48 °F74%30.13 "Hg
* Reported Jan 12 11:00 PM — Jan 27 11:00 PM, Santander, Weather by CustomWeather, © 2014

Note: Actual official high and low records may vary slightly from our data, if they occured in-between our weather recording intervals... More about our weather records

Advertising

Santander weather history for previous 24 hours

 ConditionsComfort  
Time TempWeatherWind HumidityBarometerVisibility
11:00 PM
Jan 27
46 °FPassing clouds.5 mph93%30.48 "HgN/A
10:30 PM48 °FPassing clouds.5 mph87%30.48 "HgN/A
10:00 PM48 °FPassing clouds.6 mph87%30.48 "HgN/A
9:30 PM48 °FPassing clouds.6 mph87%30.48 "HgN/A
9:00 PM48 °FPartly cloudy.6 mph87%30.48 "HgN/A
8:30 PM48 °FPartly cloudy.6 mph87%30.48 "HgN/A
8:00 PM48 °FOvercast.7 mph87%30.48 "HgN/A
7:30 PM48 °FOvercast.6 mph87%30.48 "HgN/A
7:00 PM48 °FOvercast.2 mph87%30.48 "HgN/A
6:30 PM48 °FPartly cloudy.1 mph87%30.48 "Hg4 mi
6:00 PM48 °FBroken clouds.3 mph87%30.48 "HgN/A
5:30 PM48 °FBroken clouds.2 mph87%30.48 "HgN/A
5:00 PM48 °FDrizzle. Broken clouds.3 mph87%30.48 "Hg6 mi
4:30 PM50 °FDrizzle. Broken clouds.1 mph82%30.48 "Hg5 mi
4:00 PM50 °FPartly sunny.2 mph82%30.48 "HgN/A
3:30 PM50 °FPartly sunny.3 mph88%30.48 "HgN/A
3:00 PM50 °FPartly sunny.3 mph88%30.48 "HgN/A
2:30 PM48 °FPartly sunny.2 mph87%30.48 "HgN/A
2:00 PM50 °FPartly sunny.6 mph88%30.51 "Hg5 mi
1:30 PM50 °FDrizzle. Partly sunny.3 mph82%30.51 "Hg5 mi
1:00 PM50 °FPartly sunny.8 mph82%30.51 "Hg6 mi
12:30 PM50 °FPartly sunny.2 mph94%30.51 "HgN/A
12:00 PM50 °FDrizzle. Partly sunny.1 mph94%30.54 "Hg6 mi
11:30 AM50 °FDrizzle. Fog.3 mph94%30.51 "Hg1 mi
11:00 AM50 °FDrizzle. Fog.3 mph94%30.51 "Hg1 mi
10:30 AM48 °FDrizzle. Fog.1 mph100%30.51 "Hg2 mi
10:00 AM48 °FRain. Fog.6 mph100%30.51 "Hg1 mi
9:30 AM50 °FDrizzle. Fog.10 mph94%30.51 "Hg1 mi
9:00 AM48 °FDrizzle. Fog.8 mph94%30.51 "Hg2 mi
8:30 AM46 °FPartly cloudy.6 mph93%30.51 "Hg4 mi
8:00 AM46 °FPartly cloudy.5 mph93%30.48 "Hg2 mi
7:30 AM46 °FPassing clouds.5 mph93%30.48 "Hg5 mi
7:00 AM46 °FPassing clouds.7 mph93%30.48 "HgN/A
6:30 AM46 °FPassing clouds.8 mph93%30.48 "HgN/A
6:00 AM46 °FPassing clouds.9 mph93%30.48 "HgN/A
Weather by CustomWeather, © 2014

See weather overviewHow to use our weather pages